Tracking 19193 objects as of 23-Jun-2018
HD Live streaming from Space Station
objects crossing your sky now

FENGYUN 1C DEB

Track FENGYUN 1C DEB now!
10-day predictions


NORAD ID: 31424
Int'l Code: 1999-025BTL
Perigee: 810.6 km
Apogee: 947.7 km
Inclination: 98.5 °
Period: 102.4 minutes
Semi major axis: 7250 km
RCS: 0.0107 m2 (small)
Launch date: May 10, 1999
Source: People's Republic of China (PRC)
Launch site: Taiyaun Space Center, China (TSC)

Note: This is SATELLITE DEBRIS
aabbcc
Your satellite tracking list
Your tracking list is empty




NASA's NSSDC Master Catalog

Two Line Element Set (TLE):
1 31424U 99025BTL 18166.38216427 -.00000085 +00000-0 -25485-4 0  9997
2 31424 098.4720 320.3162 0094566 298.4942 060.6728 14.06306039573557
Source of the keplerian elements: AFSPC